User: anonymous   Login
Location: Newark
(33.6333°S, 78.8500°W)
Time: 04:56:03
(UTC+00:00)
Language:

Transit 4A - Orbit

View from above orbital plane
View from above orbital plane
View from above satellite
View from above satellite

Ground track
Ground track

The orbit data is extracted from the following two-line orbital elements,

1   116U 61015A   19260.82521744 -.00000028  00000-0  37446-4 0  9991
2   116  66.8099 157.1152 0078748 205.2648 154.4572 13.91758883954224
Epoch (UTC): 17 September 2019 19:48:18
Eccentricity: 0.0078748
inclination: 66.8099°
perigee height: 865 km
apogee height: 980 km
right ascension of ascending node: 157.1152°
argument of perigee: 205.2648°
revolutions per day: 13.91758883
mean anomaly at epoch: 154.4572°
orbit number at epoch: 95422

The dashed part of the orbit path shows where the satellite is in the earth's shadow,  

DLR